Flag for U.S.A. Weather past 2 weeks in Plano, Texas, U.S.A.

Now
45 °F

Clear.


Feels Like: 40 °F
Forecast: 39 / 68 °F
Wind: 9 mph from Northwest

Location: McKinney Municipal Airport

Current Time: Jan 25, 2015 at 11:09:12 PM

Latest Report: Jan 25, 2015 at 9:53 PM


Visibility: 10 mi

Pressure: 30.18 "Hg

Humidity: 51%

Dew point: 28 °F

Location of PlanoLocation

Historic Weather in Plano — Graph

°F

Plano temperature yesterday

Maximum temperature yesterday: 59 °F (at 4:53 PM)
Minimum temperature yesterday: 33 °F (at 6:53 AM)
Average temperature yesterday: 45 °F

Past Weeks' High & Low Weather Summary

 TemperatureHumidityPressure
High68 °F (Jan 18, 3:53 PM)100% (Jan 11, 2:53 AM)30.56 "Hg (Jan 11, 2:53 AM)
Low26 °F (Jan 16, 6:53 AM)19% (Jan 18, 2:53 PM)29.94 "Hg (Jan 25, 3:53 AM)
Average44 °F68%30.23 "Hg
* Reported Jan 10 9:53 PM — Jan 25 9:53 PM, Plano, Weather by CustomWeather, © 2014

Note: Actual official high and low records may vary slightly from our data, if they occured in-between our weather recording intervals... More about our weather records

Advertising

Plano weather history for previous 24 hours

 ConditionsComfort  
Time TempWeatherWind HumidityBarometerVisibility
9:53 PM
Jan 25
45 °FClear.9 mph51%30.18 "Hg10 mi
8:53 PM45 °FClear.6 mph49%30.16 "Hg10 mi
7:53 PM51 °FClear.9 mph38%30.14 "Hg10 mi
6:53 PM54 °FClear.12 mph33%30.11 "Hg10 mi
5:53 PM57 °FClear.13 mph28%30.08 "Hg10 mi
4:53 PM61 °FSunny.26 mph21%30.06 "Hg10 mi
3:53 PM63 °FSunny.21 mph24%30.04 "Hg10 mi
2:53 PM62 °FSunny.25 mph25%30.04 "Hg10 mi
1:53 PM62 °FSunny.22 mph27%30.03 "Hg10 mi
11:53 AM60 °FSunny.22 mph36%30.04 "Hg10 mi
10:53 AM59 °FSunny.22 mph41%30.05 "Hg10 mi
9:53 AM54 °FSunny.17 mph53%30.03 "Hg10 mi
8:53 AM49 °FSunny.10 mph64%30.02 "Hg10 mi
7:53 AM44 °FSunny.10 mph71%30.01 "Hg10 mi
6:53 AM44 °FClear.12 mph71%29.97 "Hg10 mi
5:53 AM45 °FClear.9 mph68%29.95 "Hg10 mi
4:53 AM47 °FClear.14 mph64%29.94 "Hg10 mi
3:53 AM47 °FClear.10 mph66%29.94 "Hg10 mi
2:53 AM45 °FClear.7 mph68%29.96 "Hg10 mi
1:53 AM38 °FClear.3 mph83%29.98 "Hg10 mi
12:53 AM42 °FClear.8 mph76%29.98 "Hg10 mi
11:53 PM
Jan 24
44 °FClear.6 mph71%30.01 "Hg10 mi
Weather by CustomWeather, © 2014

See weather overviewHow to use our weather pages